,,,PA_Meas_PMT16A,,PR_Meas_QMR101_102,,RH_Meas_QMH101,,SR_Meas_QMS101,,TA_Meas_QMH101,,GenWind,,GenWind,
date,time,status,PA,status,PR,status,RH,status,SR,status,TA,status,DirAvg,status,SpdAvg,
2012-12-23, 00:00:04,VALID,1008.72,VALID,0,VALID,104,VALID,0,VALID,23.7525,VALID,140,VALID,0.516406,
2012-12-23, 00:01:04,VALID,1008.71,VALID,0,VALID,104,VALID,0,VALID,23.7507,VALID,139,VALID,0.326562,
2012-12-23, 00:02:04,VALID,1008.73,VALID,0,VALID,104,VALID,0,VALID,23.772,VALID,139,VALID,0.357422,
2012-12-23, 00:03:04,VALID,1008.71,VALID,0,VALID,104,VALID,0,VALID,23.7914,VALID,139,VALID,0.0796875,
2012-12-23, 00:04:04,VALID,1008.72,VALID,0,VALID,104,VALID,0,VALID,23.7738,VALID,139,VALID,0,
2012-12-23, 00:05:04,VALID,1008.72,VALID,0,VALID,104,VALID,0,VALID,23.7525,VALID,140,VALID,0.00195313,
2012-12-23, 00:06:04,VALID,1008.72,VALID,0,VALID,104,VALID,0,VALID,23.733,VALID,139,VALID,0.3625,
2012-12-23, 00:07:04,VALID,1008.72,VALID,0,VALID,104,VALID,0,VALID,23.772,VALID,139,VALID,0,
2012-12-23, 00:08:04,VALID,1008.7,VALID,0,VALID,104,VALID,0,VALID,23.7117,VALID,139,VALID,0.0796875,
2012-12-23, 00:09:04,VALID,1008.68,VALID,0,VALID,104,VALID,0,VALID,23.733,VALID,140,VALID,0,
2012-12-23, 00:10:04,VALID,1008.69,VALID,0,VALID,104,VALID,0,VALID,23.733,VALID,140,VALID,0,
2012-12-23, 00:11:04,VALID,1008.68,VALID,0,VALID,104,VALID,0,VALID,23.7525,VALID,140,VALID,0,
2012-12-23, 00:12:04,VALID,1008.68,VALID,0,VALID,104,VALID,0,VALID,23.7525,VALID,139,VALID,0,
2012-12-23, 00:13:04,VALID,1008.66,VALID,0,VALID,104,VALID,0,VALID,23.733,VALID,139,VALID,0,
2012-12-23, 00:14:04,VALID,1008.68,VALID,0,VALID,104,VALID,0,VALID,23.733,INVALID,360,VALID,0,
2012-12-23, 00:15:04,VALID,1008.72,VALID,0,VALID,104,VALID,0,VALID,23.7525,VALID,139,VALID,0,
2012-12-23, 00:16:04,VALID,1008.72,VALID,0,VALID,104,VALID,0,VALID,23.733,VALID,140,VALID,0,
2012-12-23, 00:17:04,VALID,1008.73,VALID,0,VALID,104,VALID,0,VALID,23.7525,VALID,140,VALID,0,
2012-12-23, 00:18:04,VALID,1008.75,VALID,0,VALID,104,VALID,0,VALID,23.733,VALID,139,VALID,0,
2012-12-23, 00:19:04,VALID,1008.74,VALID,0,VALID,104,VALID,0,VALID,23.733,VALID,139,VALID,0,
2012-12-23, 00:20:04,VALID,1008.73,VALID,0,VALID,104,VALID,0,VALID,23.733,VALID,139,VALID,0.434766,
2012-12-23, 00:21:04,VALID,1008.75,VALID,0,VALID,104,VALID,0,VALID,23.733,VALID,139,VALID,0.496484,
2012-12-23, 00:22:04,VALID,1008.73,VALID,0,VALID,104,VALID,0,VALID,23.733,VALID,139,VALID,0.157813,
2012-12-23, 00:23:04,VALID,1008.72,VALID,0,VALID,104,VALID,0,VALID,23.694,VALID,134,VALID,0.507813,
2012-12-23, 00:24:04,VALID,1008.73,VALID,0,VALID,104,VALID,0,VALID,23.7135,VALID,126,VALID,0.351172,
2012-12-23, 00:25:04,VALID,1008.7,VALID,0,VALID,104,VALID,0,VALID,23.694,VALID,126,VALID,0.494922,
2012-12-23, 00:26:04,VALID,1008.68,VALID,0,VALID,104,VALID,0,VALID,23.733,VALID,125,VALID,0.430859,
2012-12-23, 00:27:04,VALID,1008.68,VALID,0,VALID,104,VALID,0.112112,VALID,23.7117,VALID,125,VALID,0.273828,
2012-12-23, 00:28:04,VALID,1008.69,VALID,0,VALID,104,VALID,0,VALID,23.694,VALID,125,VALID,0.308594,
2012-12-23, 00:29:04,VALID,1008.67,VALID,0,VALID,104,VALID,0,VALID,23.7135,VALID,125,VALID,0,
2012-12-23, 00:30:04,VALID,1008.68,VALID,0,VALID,104,VALID,0,VALID,23.694,VALID,125,VALID,0.126172,
2012-12-23, 00:31:04,VALID,1008.65,VALID,0,VALID,104,VALID,0,VALID,23.6745,VALID,123,VALID,0.00664063,
2012-12-23, 00:32:04,VALID,1008.65,VALID,0,VALID,104,VALID,0,VALID,23.694,VALID,116,VALID,0.34375,
2012-12-23, 00:33:04,VALID,1008.64,VALID,0,VALID,104,VALID,0,VALID,23.6745,VALID,93,VALID,0.407422,
2012-12-23, 00:34:04,VALID,1008.64,VALID,0,VALID,104,VALID,0,VALID,23.6745,VALID,81,VALID,0.108203,
2012-12-23, 00:35:04,VALID,1008.63,VALID,0,VALID,104,VALID,0,VALID,23.6745,VALID,80,VALID,0.219531,
2012-12-23, 00:36:04,VALID,1008.63,VALID,0,VALID,104,VALID,0,VALID,23.655,VALID,80,VALID,0.144922,
2012-12-23, 00:37:04,VALID,1008.63,VALID,0,VALID,104,VALID,0,VALID,23.6745,VALID,80,VALID,0.148047,
2012-12-23, 00:38:04,VALID,1008.62,VALID,0,VALID,104,VALID,0,VALID,23.655,VALID,81,VALID,0.0402344,
2012-12-23, 00:39:04,VALID,1008.59,VALID,0,VALID,104,VALID,0,VALID,23.6745,VALID,81,VALID,0,
2012-12-23, 00:40:04,VALID,1008.61,VALID,0,VALID,104,VALID,0,VALID,23.6745,VALID,81,VALID,0,
2012-12-23, 00:41:04,VALID,1008.56,VALID,0,VALID,104,VALID,0,VALID,23.6763,VALID,80,VALID,0,
2012-12-23, 00:42:04,VALID,1008.58,VALID,0,VALID,104,VALID,0,VALID,23.6356,VALID,80,VALID,0.0671875,
2012-12-23, 00:43:04,VALID,1008.56,VALID,0,VALID,104,VALID,0,VALID,23.655,VALID,80,VALID,0.192188,
2012-12-23, 00:44:04,VALID,1008.53,VALID,0,VALID,104,VALID,0,VALID,23.694,VALID,80,VALID,0.421094,
2012-12-23, 00:45:04,VALID,1008.51,VALID,0,VALID,104,VALID,0,VALID,23.6356,VALID,81,VALID,0.327344,
2012-12-23, 00:46:04,VALID,1008.49,VALID,0,VALID,104,VALID,0,VALID,23.6338,VALID,81,VALID,0.251953,
2012-12-23, 00:47:04,VALID,1008.46,VALID,0,VALID,104,VALID,0,VALID,23.655,VALID,80,VALID,0.267969,
2012-12-23, 00:48:04,VALID,1008.48,VALID,0,VALID,104,VALID,0,VALID,23.6338,VALID,81,VALID,0.269141,
2012-12-23, 00:49:04,VALID,1008.45,VALID,0,VALID,104,VALID,0,VALID,23.655,VALID,80,VALID,0,
2012-12-23, 00:50:04,VALID,1008.46,VALID,0,VALID,104,VALID,0,VALID,23.6338,VALID,81,VALID,0.196094,
2012-12-23, 00:51:04,VALID,1008.45,VALID,0,VALID,104,VALID,0,VALID,23.6338,VALID,80,VALID,0.00117188,
2012-12-23, 00:52:04,VALID,1008.41,VALID,0,VALID,104,VALID,0,VALID,23.655,VALID,80,VALID,0.164844,
2012-12-23, 00:53:04,VALID,1008.4,VALID,0,VALID,104,VALID,0,VALID,23.6338,VALID,80,VALID,0.0878906,
2012-12-23, 00:54:04,VALID,1008.37,VALID,0,VALID,104,VALID,0,VALID,23.6532,VALID,81,VALID,0.09375,
2012-12-23, 00:55:04,VALID,1008.34,VALID,0,VALID,104,VALID,0,VALID,23.6338,VALID,81,VALID,0.319531,
2012-12-23, 00:56:04,VALID,1008.38,VALID,0,VALID,104,VALID,0,VALID,23.6338,VALID,80,VALID,0.312891,
2012-12-23, 00:57:04,VALID,1008.37,VALID,0,VALID,104,VALID,0,VALID,23.6356,VALID,81,VALID,0.401563,
2012-12-23, 00:58:04,VALID,1008.38,VALID,0,VALID,104,VALID,0,VALID,23.6356,VALID,81,VALID,0.111719,
2012-12-23, 00:59:04,VALID,1008.36,VALID,0,VALID,104,VALID,0,VALID,23.5948,VALID,80,VALID,0.282422,
2012-12-23, 01:00:04,VALID,1008.37,VALID,0,VALID,104,VALID,0,VALID,23.6143,VALID,78,VALID,0.0960938,
2012-12-23, 01:01:04,VALID,1008.35,VALID,0,VALID,104,VALID,0,VALID,23.6338,VALID,80,VALID,0.177734,
2012-12-23, 01:02:04,VALID,1008.33,VALID,0,VALID,104,VALID,0,VALID,23.6532,VALID,59,VALID,0.439063,
2012-12-23, 01:03:04,VALID,1008.32,VALID,0,VALID,104,VALID,0,VALID,23.6745,VALID,61,VALID,0.046875,
2012-12-23, 01:04:04,VALID,1008.27,VALID,0,VALID,104,VALID,0,VALID,23.6338,VALID,59,VALID,0,
2012-12-23, 01:05:04,VALID,1008.28,VALID,0,VALID,104,VALID,0,VALID,23.655,VALID,60,VALID,0,
2012-12-23, 01:06:04,VALID,1008.21,VALID,0,VALID,104,VALID,0,VALID,23.6338,VALID,60,VALID,0,
2012-12-23, 01:07:04,VALID,1008.21,VALID,0,VALID,104,VALID,0,VALID,23.6356,VALID,60,VALID,0.340234,
2012-12-23, 01:08:04,VALID,1008.18,VALID,0,VALID,104,VALID,0,VALID,23.6161,VALID,59,VALID,0.370313,
2012-12-23, 01:09:04,VALID,1008.15,VALID,0,VALID,104,VALID,0,VALID,23.6356,VALID,60,VALID,0.337891,
2012-12-23, 01:10:04,VALID,1008.13,VALID,0,VALID,104,VALID,0,VALID,23.6356,VALID,60,VALID,0.298047,
2012-12-23, 01:11:04,VALID,1008.14,VALID,0,VALID,104,VALID,0,VALID,23.6161,VALID,60,VALID,0.296875,
2012-12-23, 01:12:04,VALID,1008.12,VALID,0,VALID,104,VALID,0,VALID,23.6161,VALID,59,VALID,0.00351562,
2012-12-23, 01:13:04,VALID,1008.13,VALID,0,VALID,104,VALID,0,VALID,23.5966,VALID,59,VALID,0,
2012-12-23, 01:14:04,VALID,1008.11,VALID,0,VALID,104,VALID,0,VALID,23.5753,VALID,59,VALID,0,
2012-12-23, 01:15:04,VALID,1008.11,VALID,0,VALID,104,VALID,0,VALID,23.5753,VALID,60,VALID,0,
2012-12-23, 01:16:04,VALID,1008.09,VALID,0,VALID,104,VALID,0,VALID,23.5966,VALID,59,VALID,0,
2012-12-23, 01:17:04,VALID,1008.11,VALID,0,VALID,104,VALID,0,VALID,23.5771,VALID,59,VALID,0.3,
2012-12-23, 01:18:04,VALID,1008.12,VALID,0,VALID,104,VALID,0,VALID,23.5558,VALID,60,VALID,0,
2012-12-23, 01:19:04,VALID,1008.12,VALID,0,VALID,104,VALID,0,VALID,23.5363,VALID,60,VALID,0,
2012-12-23, 01:20:04,VALID,1008.13,VALID,0,VALID,104,VALID,0,VALID,23.5558,VALID,59,VALID,0,
2012-12-23, 01:21:04,VALID,1008.12,VALID,0,VALID,104,VALID,0,VALID,23.5363,VALID,59,VALID,0,
2012-12-23, 01:22:04,VALID,1008.13,VALID,0,VALID,104,VALID,0,VALID,23.5381,VALID,59,VALID,0,
2012-12-23, 01:23:04,VALID,1008.16,VALID,0,VALID,104,VALID,0,VALID,23.5363,VALID,61,VALID,0,
2012-12-23, 01:24:04,VALID,1008.15,VALID,0,VALID,104,VALID,0,VALID,23.5381,VALID,59,VALID,0,
2012-12-23, 01:25:04,VALID,1008.17,VALID,0,VALID,104,VALID,0,VALID,23.5381,VALID,59,VALID,0,
2012-12-23, 01:26:04,VALID,1008.17,VALID,0,VALID,104,VALID,0,VALID,23.5381,VALID,59,VALID,0.201562,
2012-12-23, 01:27:04,VALID,1008.15,VALID,0,VALID,104,VALID,0,VALID,23.4974,VALID,60,VALID,0.208984,
2012-12-23, 01:28:04,VALID,1008.16,VALID,0,VALID,104,VALID,0,VALID,23.5186,VALID,59,VALID,0.263672,
2012-12-23, 01:29:04,VALID,1008.13,VALID,0,VALID,104,VALID,0,VALID,23.4797,VALID,59,VALID,0.218359,
2012-12-23, 01:30:04,VALID,1008.14,VALID,0,VALID,104,VALID,0,VALID,23.5169,VALID,59,VALID,0.234766,
2012-12-23, 01:31:04,VALID,1008.11,VALID,0,VALID,104,VALID,0,VALID,23.4992,VALID,59,VALID,0.0132813,
2012-12-23, 01:32:04,VALID,1008.11,VALID,0,VALID,104,VALID,0,VALID,23.4797,VALID,59,VALID,0.240625,
2012-12-23, 01:33:04,VALID,1008.08,VALID,0,VALID,104,VALID,0,VALID,23.4797,VALID,59,VALID,0.139844,
2012-12-23, 01:34:04,VALID,1008.06,VALID,0,VALID,104,VALID,0,VALID,23.4797,VALID,59,VALID,0.127734,
2012-12-23, 01:35:04,VALID,1008.08,VALID,0,VALID,104,VALID,0,VALID,23.4797,VALID,59,VALID,0.021875,
2012-12-23, 01:36:04,VALID,1008.05,VALID,0,VALID,104,VALID,0,VALID,23.4797,VALID,60,VALID,0.00429688,
2012-12-23, 01:37:04,VALID,1008.06,VALID,0,VALID,104,VALID,0,VALID,23.4584,VALID,59,VALID,0.0914062,
2012-12-23, 01:38:04,VALID,1008.04,VALID,0,VALID,104,VALID,0,VALID,23.4602,VALID,59,VALID,0.330859,
2012-12-23, 01:39:04,VALID,1008.01,VALID,0,VALID,104,VALID,0,VALID,23.4407,VALID,60,VALID,0.169922,
2012-12-23, 01:40:04,VALID,1008,VALID,0,VALID,104,VALID,0,VALID,23.4602,VALID,60,VALID,0.0890625,
2012-12-23, 01:41:04,VALID,1007.99,VALID,0,VALID,104,VALID,0,VALID,23.4602,VALID,59,VALID,0.3625,
2012-12-23, 01:42:04,VALID,1007.94,VALID,0,VALID,104,VALID,0,VALID,23.4389,VALID,59,VALID,0.242969,
2012-12-23, 01:43:04,VALID,1007.94,VALID,0,VALID,104,VALID,0,VALID,23.4,VALID,59,VALID,0.3375,
2012-12-23, 01:44:04,VALID,1007.89,VALID,0,VALID,104,VALID,0,VALID,23.4407,VALID,59,VALID,0.270703,
2012-12-23, 01:45:04,VALID,1007.91,VALID,0,VALID,104,VALID,0,VALID,23.4212,VALID,60,VALID,0.0695312,
2012-12-23, 01:46:04,VALID,1007.88,VALID,0,VALID,104,VALID,0,VALID,23.4407,VALID,59,VALID,0.130859,
2012-12-23, 01:47:04,VALID,1007.91,VALID,0,VALID,104,VALID,0,VALID,23.4017,VALID,60,VALID,0.0558594,
2012-12-23, 01:48:04,VALID,1007.91,VALID,0,VALID,104,VALID,0,VALID,23.4212,VALID,60,VALID,0.438281,
2012-12-23, 01:49:04,VALID,1007.93,VALID,0,VALID,104,VALID,0,VALID,23.4212,VALID,59,VALID,0.0503906,
2012-12-23, 01:50:04,VALID,1007.91,VALID,0,VALID,104,VALID,0,VALID,23.361,VALID,60,VALID,0.0960938,
2012-12-23, 01:51:04,VALID,1007.91,VALID,0,VALID,104,VALID,0,VALID,23.4017,VALID,59,VALID,0.0332031,
2012-12-23, 01:52:04,VALID,1007.91,VALID,0,VALID,104,VALID,0,VALID,23.3805,VALID,60,VALID,0.328516,
2012-12-23, 01:53:04,VALID,1007.93,VALID,0,VALID,104,VALID,0,VALID,23.4017,VALID,53,VALID,0.441406,
2012-12-23, 01:54:04,VALID,1007.89,VALID,0,VALID,104,VALID,0,VALID,23.4017,VALID,47,VALID,0.373828,
2012-12-23, 01:55:04,VALID,1007.89,VALID,0,VALID,104,VALID,0,VALID,23.4017,VALID,47,VALID,0.264844,
2012-12-23, 01:56:04,VALID,1007.89,VALID,0,VALID,104,VALID,0,VALID,23.4017,VALID,47,VALID,0.371484,
2012-12-23, 01:57:04,VALID,1007.89,VALID,0,VALID,104,VALID,0,VALID,23.3823,VALID,47,VALID,0.314844,
2012-12-23, 01:58:04,VALID,1007.88,VALID,0,VALID,104,VALID,0,VALID,23.4017,VALID,47,VALID,0.351953,
2012-12-23, 01:59:04,VALID,1007.85,VALID,0,VALID,104,VALID,0,VALID,23.4212,VALID,45,VALID,0.503516,
2012-12-23, 02:00:04,VALID,1007.86,VALID,0,VALID,104,VALID,0,VALID,23.3823,VALID,45,VALID,0.501172,
2012-12-23, 02:01:04,VALID,1007.84,VALID,0,VALID,104,VALID,0,VALID,23.4212,VALID,45,VALID,0.520312,
2012-12-23, 02:02:04,VALID,1007.85,VALID,0,VALID,104,VALID,0,VALID,23.423,VALID,44,VALID,0.169141,
2012-12-23, 02:03:04,VALID,1007.85,VALID,0,VALID,104,VALID,0,VALID,23.4212,VALID,45,VALID,0.567969,
2012-12-23, 02:04:04,VALID,1007.82,VALID,0,VALID,104,VALID,0,VALID,23.4212,VALID,45,VALID,0.602734,
2012-12-23, 02:05:04,VALID,1007.81,VALID,0,VALID,104,VALID,0,VALID,23.4017,VALID,45,VALID,0.151953,
2012-12-23, 02:06:04,VALID,1007.8,VALID,0,VALID,104,VALID,0,VALID,23.4017,VALID,45,VALID,0.520703,
2012-12-23, 02:07:04,VALID,1007.78,VALID,0,VALID,104,VALID,0,VALID,23.4212,VALID,45,VALID,0.407813,
2012-12-23, 02:08:04,VALID,1007.75,VALID,0,VALID,104,VALID,0,VALID,23.4212,VALID,45,VALID,0.469531,
2012-12-23, 02:09:04,VALID,1007.73,VALID,0,VALID,104,VALID,0,VALID,23.3805,VALID,45,VALID,0.505469,
2012-12-23, 02:10:04,VALID,1007.68,VALID,0,VALID,104,VALID,0,VALID,23.423,VALID,45,VALID,0.637109,
2012-12-23, 02:11:04,VALID,1007.67,VALID,0,VALID,104,VALID,0,VALID,23.4212,VALID,45,VALID,0.325391,
2012-12-23, 02:12:04,VALID,1007.63,VALID,0,VALID,104,VALID,0,VALID,23.4212,VALID,45,VALID,0.479297,
2012-12-23, 02:13:04,VALID,1007.62,VALID,0,VALID,104,VALID,0,VALID,23.4212,VALID,45,VALID,0.175391,
2012-12-23, 02:14:04,VALID,1007.62,VALID,0,VALID,104,VALID,0,VALID,23.4407,VALID,44,VALID,0.239063,
2012-12-23, 02:15:04,VALID,1007.62,VALID,0,VALID,104,VALID,0,VALID,23.4212,VALID,45,VALID,0.290234,
2012-12-23, 02:16:04,VALID,1007.61,VALID,0,VALID,104,VALID,0,VALID,23.462,VALID,45,VALID,0.0703125,
2012-12-23, 02:17:04,VALID,1007.61,VALID,0,VALID,104,VALID,0,VALID,23.4017,VALID,45,VALID,0.538672,
2012-12-23, 02:18:04,VALID,1007.59,VALID,0,VALID,104,VALID,0,VALID,23.4017,VALID,45,VALID,0.424219,
2012-12-23, 02:19:04,VALID,1007.54,VALID,0,VALID,104,VALID,0,VALID,23.4212,VALID,45,VALID,0.621094,
2012-12-23, 02:20:04,VALID,1007.54,VALID,0,VALID,104,VALID,0,VALID,23.3823,VALID,45,VALID,0.513672,
2012-12-23, 02:21:04,VALID,1007.52,VALID,0,VALID,104,VALID,0,VALID,23.384,VALID,36,VALID,0.466797,
2012-12-23, 02:22:04,VALID,1007.48,VALID,0,VALID,104,VALID,0,VALID,23.3823,VALID,36,VALID,0.196094,
2012-12-23, 02:23:04,VALID,1007.47,VALID,0,VALID,104,VALID,0,VALID,23.4035,VALID,36,VALID,0.421094,
2012-12-23, 02:24:04,VALID,1007.45,VALID,0,VALID,104,VALID,0,VALID,23.3823,VALID,33,VALID,0.356641,
2012-12-23, 02:25:04,VALID,1007.42,VALID,0,VALID,104,VALID,0,VALID,23.3628,VALID,33,VALID,0.218359,
2012-12-23, 02:26:04,VALID,1007.44,VALID,0,VALID,104,VALID,0,VALID,23.3433,VALID,32,VALID,0.675,
2012-12-23, 02:27:04,VALID,1007.4,VALID,0,VALID,104,VALID,0,VALID,23.3433,VALID,32,VALID,0.666406,
2012-12-23, 02:28:04,VALID,1007.4,VALID,0,VALID,104,VALID,0,VALID,23.3628,VALID,32,VALID,0.619922,
2012-12-23, 02:29:04,VALID,1007.36,VALID,0,VALID,104,VALID,0,VALID,23.3628,VALID,32,VALID,0.320703,
2012-12-23, 02:30:04,VALID,1007.36,VALID,0,VALID,104,VALID,0,VALID,23.3433,VALID,33,VALID,0.583984,
2012-12-23, 02:31:04,VALID,1007.36,VALID,0,VALID,104,VALID,0,VALID,23.3043,VALID,51,VALID,0.980859,
2012-12-23, 02:32:04,VALID,1007.35,VALID,0,VALID,104,VALID,0,VALID,23.3433,VALID,43,VALID,0.576172,
2012-12-23, 02:33:04,VALID,1007.37,VALID,0,VALID,104,VALID,0,VALID,23.3238,VALID,42,VALID,0.924609,
2012-12-23, 02:34:04,VALID,1007.35,VALID,0,VALID,104,VALID,0,VALID,23.3238,VALID,44,VALID,0.567969,
2012-12-23, 02:35:04,VALID,1007.35,VALID,0,VALID,104,VALID,0,VALID,23.3433,VALID,43,VALID,0.369141,
2012-12-23, 02:36:04,VALID,1007.38,VALID,0,VALID,104,VALID,0,VALID,23.3238,VALID,50,VALID,0.7375,
2012-12-23, 02:37:04,VALID,1007.37,VALID,0,VALID,104,VALID,0,VALID,23.3433,VALID,50,VALID,0.456641,
2012-12-23, 02:38:04,VALID,1007.37,VALID,0,VALID,104,VALID,0,VALID,23.3256,VALID,35,VALID,0.597656,
2012-12-23, 02:39:04,VALID,1007.4,VALID,0,VALID,104,VALID,0,VALID,23.3043,VALID,28,VALID,0.491406,
2012-12-23, 02:40:04,VALID,1007.38,VALID,0,VALID,104,VALID,0,VALID,23.3238,VALID,27,VALID,0.328516,
2012-12-23, 02:41:04,VALID,1007.37,VALID,0,VALID,104,VALID,0,VALID,23.3026,VALID,27,VALID,0.0914062,
2012-12-23, 02:42:04,VALID,1007.37,VALID,0,VALID,104,VALID,0,VALID,23.322,VALID,27,VALID,0,
2012-12-23, 02:43:04,VALID,1007.37,VALID,0,VALID,104,VALID,0,VALID,23.3238,VALID,28,VALID,0.164844,
2012-12-23, 02:44:04,VALID,1007.34,VALID,0,VALID,104,VALID,0,VALID,23.3043,VALID,28,VALID,0.687891,
2012-12-23, 02:45:04,VALID,1007.35,VALID,0,VALID,104,VALID,0,VALID,23.3043,VALID,28,VALID,0.08125,
2012-12-23, 02:46:04,VALID,1007.33,VALID,0,VALID,104,VALID,0.112112,VALID,23.3026,VALID,27,VALID,0.445703,
2012-12-23, 02:47:04,VALID,1007.31,VALID,0,VALID,104,VALID,0,VALID,23.3238,VALID,27,VALID,0.0597656,
2012-12-23, 02:48:04,VALID,1007.33,VALID,0,VALID,104,VALID,0,VALID,23.3043,VALID,28,VALID,0.117578,
2012-12-23, 02:49:04,VALID,1007.31,VALID,0,VALID,104,VALID,0,VALID,23.2831,VALID,27,VALID,0.262891,
2012-12-23, 02:50:04,VALID,1007.31,VALID,0,VALID,104,VALID,0,VALID,23.2831,VALID,28,VALID,0,
2012-12-23, 02:51:04,VALID,1007.29,VALID,0,VALID,104,VALID,0,VALID,23.2848,VALID,27,VALID,0.142578,
2012-12-23, 02:52:04,VALID,1007.28,VALID,0,VALID,104,VALID,0,VALID,23.3043,VALID,28,VALID,0.255469,
2012-12-23, 02:53:04,VALID,1007.26,VALID,0,VALID,104,VALID,0,VALID,23.2831,VALID,28,VALID,0.448438,
2012-12-23, 02:54:04,VALID,1007.22,VALID,0,VALID,104,VALID,0,VALID,23.3026,VALID,27,VALID,0.515234,
2012-12-23, 02:55:04,VALID,1007.2,VALID,0,VALID,104,VALID,0,VALID,23.3043,VALID,48,VALID,0.358984,
2012-12-23, 02:56:04,VALID,1007.16,VALID,0,VALID,104,VALID,0.112112,VALID,23.3043,VALID,48,VALID,0.301172,
2012-12-23, 02:57:04,VALID,1007.15,VALID,0,VALID,104,VALID,0.112112,VALID,23.3043,VALID,48,VALID,0.112891,
2012-12-23, 02:58:04,VALID,1007.11,VALID,0,VALID,104,VALID,0,VALID,23.3026,VALID,47,VALID,0.324609,
2012-12-23, 02:59:04,VALID,1007.09,VALID,0,VALID,104,VALID,0,VALID,23.3238,VALID,47,VALID,0.0691406,
2012-12-23, 03:00:04,VALID,1007.07,VALID,0,VALID,104,VALID,0,VALID,23.322,VALID,47,VALID,0.197266,
2012-12-23, 03:01:04,VALID,1007.07,VALID,0,VALID,104,VALID,0,VALID,23.2831,VALID,47,VALID,0.172266,
2012-12-23, 03:02:04,VALID,1007.05,VALID,0,VALID,104,VALID,0,VALID,23.3026,VALID,47,VALID,0.200391,
2012-12-23, 03:03:04,VALID,1007.07,VALID,0,VALID,104,VALID,0.112112,VALID,23.2831,VALID,47,VALID,0.295312,
2012-12-23, 03:04:04,VALID,1007.03,VALID,0,VALID,104,VALID,0.112112,VALID,23.3026,VALID,47,VALID,0.308203,
2012-12-23, 03:05:04,VALID,1007.01,VALID,0,VALID,104,VALID,0.112112,VALID,23.3026,VALID,47,VALID,0.028125,
2012-12-23, 03:06:04,VALID,1007,VALID,0,VALID,104,VALID,0,VALID,23.3043,VALID,47,VALID,0.183594,
2012-12-23, 03:07:04,VALID,1007,VALID,0,VALID,104,VALID,0.112112,VALID,23.2636,VALID,47,VALID,0,
2012-12-23, 03:08:04,VALID,1006.95,VALID,0,VALID,104,VALID,0.112112,VALID,23.2831,VALID,47,VALID,0.491016,
2012-12-23, 03:09:04,VALID,1006.95,VALID,0,VALID,104,VALID,0.112112,VALID,23.2848,VALID,47,VALID,0,
2012-12-23, 03:10:04,VALID,1006.96,VALID,0,VALID,104,VALID,0.112112,VALID,23.2636,VALID,47,VALID,0.0046875,
2012-12-23, 03:11:04,VALID,1006.94,VALID,0,VALID,104,VALID,0,VALID,23.2246,VALID,47,VALID,0.425,
2012-12-23, 03:12:04,VALID,1006.93,VALID,0,VALID,104,VALID,0,VALID,23.2441,VALID,47,VALID,0.18125,
2012-12-23, 03:13:04,VALID,1006.9,VALID,0,VALID,104,VALID,0.112112,VALID,23.2636,VALID,47,VALID,0,
2012-12-23, 03:14:04,VALID,1006.86,VALID,0,VALID,104,VALID,0,VALID,23.2246,VALID,47,VALID,0.164844,
2012-12-23, 03:15:04,VALID,1006.85,VALID,0,VALID,104,VALID,0,VALID,23.2246,VALID,47,VALID,0.0140625,
2012-12-23, 03:16:04,VALID,1006.85,VALID,0,VALID,104,VALID,0,VALID,23.2459,VALID,47,VALID,0.339063,
2012-12-23, 03:17:04,VALID,1006.83,VALID,0,VALID,104,VALID,0,VALID,23.2459,VALID,48,VALID,0.548437,
2012-12-23, 03:18:04,VALID,1006.83,VALID,0,VALID,104,VALID,0,VALID,23.2246,VALID,43,VALID,0.803516,
2012-12-23, 03:19:04,VALID,1006.82,VALID,0,VALID,104,VALID,0,VALID,23.2441,VALID,46,VALID,0.432031,
2012-12-23, 03:20:04,VALID,1006.82,VALID,0,VALID,104,VALID,0,VALID,23.2051,VALID,56,VALID,0.552344,
2012-12-23, 03:21:04,VALID,1006.8,VALID,0,VALID,104,VALID,0.112112,VALID,23.2246,VALID,55,VALID,0.583203,
2012-12-23, 03:22:04,VALID,1006.83,VALID,0,VALID,104,VALID,0,VALID,23.2051,VALID,56,VALID,0.216406,
2012-12-23, 03:23:04,VALID,1006.79,VALID,0,VALID,104,VALID,0,VALID,23.2264,VALID,55,VALID,0.601563,
2012-12-23, 03:24:04,VALID,1006.82,VALID,0,VALID,104,VALID,0,VALID,23.2069,VALID,55,VALID,0.588281,
2012-12-23, 03:25:04,VALID,1006.82,VALID,0,VALID,104,VALID,0.112112,VALID,23.1857,VALID,48,VALID,0.372656,
2012-12-23, 03:26:04,VALID,1006.84,VALID,0,VALID,104,VALID,0.112112,VALID,23.1857,VALID,47,VALID,0.765625,
2012-12-23, 03:27:04,VALID,1006.84,VALID,0,VALID,104,VALID,0,VALID,23.2069,VALID,40,VALID,0.629687,
2012-12-23, 03:28:04,VALID,1006.86,VALID,0,VALID,104,VALID,0,VALID,23.1874,VALID,43,VALID,0.486719,
2012-12-23, 03:29:04,VALID,1006.85,VALID,0,VALID,104,VALID,0,VALID,23.1874,VALID,43,VALID,0.616797,
2012-12-23, 03:30:04,VALID,1006.84,VALID,0,VALID,104,VALID,0,VALID,23.1679,VALID,43,VALID,0.407422,
2012-12-23, 03:31:04,VALID,1006.86,VALID,0,VALID,104,VALID,0,VALID,23.1662,VALID,48,VALID,0.515625,
2012-12-23, 03:32:04,VALID,1006.83,VALID,0,VALID,104,VALID,0.112112,VALID,23.1874,VALID,48,VALID,0.458984,
2012-12-23, 03:33:04,VALID,1006.81,VALID,0,VALID,104,VALID,0.112112,VALID,23.1485,VALID,48,VALID,0.665234,
2012-12-23, 03:34:04,VALID,1006.81,VALID,0,VALID,104,VALID,0.112112,VALID,23.1467,VALID,57,VALID,0.915234,
2012-12-23, 03:35:04,VALID,1006.8,VALID,0,VALID,104,VALID,0,VALID,23.1679,VALID,59,VALID,0.573828,
2012-12-23, 03:36:04,VALID,1006.8,VALID,0,VALID,104,VALID,0,VALID,23.1679,VALID,58,VALID,0.825,
2012-12-23, 03:37:04,VALID,1006.8,VALID,0,VALID,104,VALID,0,VALID,23.1485,VALID,57,VALID,0.286719,
2012-12-23, 03:38:04,VALID,1006.83,VALID,0,VALID,104,VALID,0,VALID,23.1485,VALID,57,VALID,0.626953,
2012-12-23, 03:39:04,VALID,1006.8,VALID,0,VALID,104,VALID,0,VALID,23.1485,VALID,57,VALID,0.295703,
2012-12-23, 03:40:04,VALID,1006.79,VALID,0,VALID,104,VALID,0.112112,VALID,23.129,VALID,57,VALID,0.262891,
2012-12-23, 03:41:04,VALID,1006.77,VALID,0,VALID,104,VALID,0,VALID,23.129,VALID,36,VALID,0.709375,
2012-12-23, 03:42:04,VALID,1006.79,VALID,0,VALID,104,VALID,0,VALID,23.1077,VALID,39,VALID,0.714063,
2012-12-23, 03:43:04,VALID,1006.77,VALID,0,VALID,104,VALID,0,VALID,23.1485,VALID,65,VALID,0.321484,
2012-12-23, 03:44:04,VALID,1006.78,VALID,0,VALID,104,VALID,0,VALID,23.1095,VALID,65,VALID,0.358203,
2012-12-23, 03:45:04,VALID,1006.77,VALID,0,VALID,104,VALID,0,VALID,23.0883,VALID,59,VALID,0.56875,
2012-12-23, 03:46:04,VALID,1006.8,VALID,0,VALID,104,VALID,0,VALID,23.1095,VALID,54,VALID,0.187891,
2012-12-23, 03:47:04,VALID,1006.75,VALID,0,VALID,104,VALID,0,VALID,23.129,VALID,54,VALID,0,
2012-12-23, 03:48:04,VALID,1006.79,VALID,0,VALID,104,VALID,0,VALID,23.1095,VALID,293,VALID,0.212891,
2012-12-23, 03:49:04,VALID,1006.74,VALID,0,VALID,104,VALID,0,VALID,23.1485,VALID,293,VALID,0.455859,
2012-12-23, 03:50:04,VALID,1006.78,VALID,0,VALID,104,VALID,0,VALID,23.1485,VALID,327,VALID,0.531641,
2012-12-23, 03:51:04,VALID,1006.75,VALID,0,VALID,104,VALID,0,VALID,23.1485,VALID,328,VALID,0.527734,
2012-12-23, 03:52:04,VALID,1006.76,VALID,0,VALID,104,VALID,0,VALID,23.1485,VALID,19,VALID,0.479297,
2012-12-23, 03:53:04,VALID,1006.76,VALID,0,VALID,104,VALID,0,VALID,23.1679,VALID,37,VALID,0.53125,
2012-12-23, 03:54:04,VALID,1006.78,VALID,0,VALID,104,VALID,0,VALID,23.1679,VALID,37,VALID,0.328516,
2012-12-23, 03:55:04,VALID,1006.77,VALID,0,VALID,104,VALID,0,VALID,23.1874,VALID,40,VALID,0.278125,
2012-12-23, 03:56:04,VALID,1006.79,VALID,0,VALID,104,VALID,0,VALID,23.1679,VALID,48,VALID,0.511719,